Find Starlink 4572

NORAD ID: 53692 Int'l Des: 2022-105 Owner: SPXS Country: US Constellation: starlink operational
LEOCIRCULARRETROGRADESSO

現在のビュー

3D地球を読み込み中...

About Starlink 4572

Starlink 4572 (NORAD 53692) is a starlink constellation satellite (v1.5) launched Aug 31, 2022 by SPXS of US. It operates in LEO, CIRCULAR, RETROGRADE, SSO orbit with a mass of 300.00 kg.

Starlink 4572について

説明を読み込み中...

次回通過

Passes for default location (London). Set your location on the main map for personalized predictions.

高度履歴

Loading altitude history...

軌道要素

1 53692U 22105AW 26195.14455693 .00019189 00000-0 69630-3 0 9990
2 53692 97.6040 84.1112 0003262 101.7276 258.4329 15.28367870212822
Epoch: Jul 14, 2026 • Age: 6 hours

現在のステータス

高度 488.1 km
遠地点 / 近地点 N/A
速度 7.62 km/s
衛星直下点 -18.19°S, 166.11°W
打ち上げ日 Aug 31, 2022
運用期間 3.8 years
タイプ internet

技術仕様

分類 Payload
質量 300.00 kg
乾燥質量 290.00 kg
総質量 300.00 kg
長さ 0.20 m
直径 2.80 m
スパン 9.00 m
形状 Box + pan
製造者 SPXS
バスタイプ Starlink
フェーズステータス In Orbit
所有者/国 SPXS/US

Most Searched